This is the latest recevied weather packets stored in our database for station/object N7IGG. If no packets are shown the sender has not sent any weather packets the latest 10 day(s).
| Time | Temp. | Humidity | Pressure | Rain* | Wind** | Luminosity | Snow |
|---|---|---|---|---|---|---|---|
| 1778180273 | 12.78° C | 83% | 1020.5 hPa | 0 mm | - | 667 W/m² | - |
| 1778179969 | 12.78° C | 82% | 1020.5 hPa | 0 mm | - | 614 W/m² | - |
| 1778179667 | 12.78° C | 83% | 1020.6 hPa | 0 mm | - | 599 W/m² | - |
| 1778179365 | 12.78° C | 84% | 1021 hPa | 0 mm | - | 613 W/m² | - |
| 1778179061 | 12.78° C | 84% | 1020.8 hPa | 0 mm | - | 553 W/m² | - |
| 1778178758 | 12.22° C | 84% | 1020.8 hPa | 0 mm | - | 619 W/m² | - |
| 1778178456 | 12.22° C | 84% | 1020.8 hPa | 0 mm | - | 619 W/m² | - |
| 1778178150 | 12.22° C | 85% | 1021.1 hPa | 0 mm | - | 604 W/m² | - |
| 1778177848 | 12.22° C | 84% | 1021 hPa | 0 mm | - | 579 W/m² | - |
| 1778177558 | 12.22° C | 84% | 1020.9 hPa | 0 mm | - | 450 W/m² | - |
| 1778177240 | 12.22° C | 84% | 1020.9 hPa | 0 mm | - | 302 W/m² | - |
| 1778176938 | 11.67° C | 84% | 1020.9 hPa | 0 mm | - | 286 W/m² | - |
| 1778176633 | 12.22° C | 84% | 1021.1 hPa | 0 mm | - | 245 W/m² | - |
| 1778176330 | 12.22° C | 84% | 1021.1 hPa | 0 mm | - | 214 W/m² | - |
| 1778176027 | 12.22° C | 83% | 1021.2 hPa | 0 mm | - | 247 W/m² | - |
| 1778175725 | 11.67° C | 83% | 1021 hPa | 0 mm | - | 384 W/m² | - |
| 1778175441 | 11.67° C | 83% | 1021.1 hPa | 0 mm | - | 59 W/m² | - |
| 1778175119 | 11.67° C | 83% | 1021.1 hPa | 0 mm | - | 71 W/m² | - |
| 1778174816 | 11.67° C | 82% | 1021 hPa | 0 mm | - | 66 W/m² | - |
| 1778174513 | 11.67° C | 82% | 1021 hPa | 0 mm | - | 57 W/m² | - |
| 1778174213 | 11.67° C | 83% | 1021 hPa | 0 mm | - | 64 W/m² | - |
| 1778173910 | 11.67° C | 83% | 1020.9 hPa | 0 mm | - | 59 W/m² | - |
| 1778173607 | 12.22° C | 83% | 1020.9 hPa | 0 mm | - | 51 W/m² | - |
| 1778173324 | 11.67° C | 83% | 1021 hPa | 0 mm | - | 51 W/m² | - |
| 1778173000 | 11.67° C | 84% | 1020.8 hPa | 0 mm | - | 60 W/m² | - |
* Rain latest hour (hover to see other rain measurements)
** Current wind speed in m/s (hover to see current wind gust speed)